Location: Unspecified
(48.8656°N, 0.0000°E)
Time: 21:54:31
(UTC+00:00)

SR - Pass Details

Date: 02 July 2019
Orbit: 581 x 875 km, 66.7° (Epoch: 15 July)

Event Time Altitude Azimuth Distance (km) Brightness Sun altitude
Rises 08:33:45 0° 327° (NNW) 2,997 ? 41.5°
Reaches altitude 10° 08:36:09 10° 337° (NNW) 2,126 ? 41.9°
Maximum altitude 08:40:36 36° 44° (NE) 1,140 ? 42.6°
Drops below altitude 10° 08:45:25 10° 111° (ESE) 2,298 ? 43.4°
Sets 08:48:06 0° 119° (ESE) 3,272 ? 43.8°
